Showing default

SPOQC, 68423

Orbit data source: Space-Track

SPOQC, 68423 is a Dutch payload satellite in SSO that was launched on Mon, 30 Mar 2026 UTC via an FALCON 9 launch vehicle from the Air Force Western Test Range (AFWTR). Payload-class satellites include a variety of spacecraft equipped with specific instruments for various scientific and technological missions. These include communications satellites like Starlink; space stations such as the ISS; scientific satellites like the Hubble; Earth observation satellites from companies like Planet Labs, Umbra, and HawkEye 360; GPS; miniature CubeSats for education and research; and military/defense satellites.

Loading next visibility...
Identifier
68423, 2026-067H
Orbit
SSO
Country
Flag of NLNL / NETH
Related business
Manufacturer
ISIS BV
Mission
Operational spacecraft
Bus & Motor
CUBESAT 12U, Unknown motor
Mass
~20 kg wet, ~20 kg dry
Launch date (UTC)
2026-03-30 (3 months ago)
Launch vehicle
FALCON 9
Launch site
Air Force Western Test Range (AFWTR)
Object type
Payload
Rocket body
Debris
Shape & HBR
Unknown shape, 0.2 m
Radar Cross Section
Medium (>0.1 m² and <1 m²)

Expand to show TLE details & history
Last TLE update: 2 days ago

TLE from 2 days ago
0 SPOQC
1 68423U 26067H   26171.34484851  .00003894  00000-0  19000-3 0  9995
2 68423  97.4507 129.7799 0001285  94.8372 265.3009 15.18881789 12420
Epoch: 2026-06-20T08:16Z
TLE epoch observation values (Epoch: 2026-06-20T08:16:34.911Z)
Latitude
-0.00002°
Longitude
97.07363°
Altitude
512.379 km
Speed
7.608 km/s
True Right ascension
08h 39m 07s
True Declination
0° 00' 00"
Sunlit
Object was in daylight at epoch
Visualization orbit readout
Latitude
Unknown
Longitude
Unknown
Altitude
Unknown
Speed
Unknown
Apparent Right ascension
Unknown
Apparent Declination
Unknown
Sunlit
N/A
Visualization observer readout
Local Sidereal Time
07:25:50
Azimuth
Unknown
Elevation
Unknown
Doppler factor
Unknown
Orbital elements
Apogee altitude
507.073 km
Perigee altitude
505.303 km
Semi-major axis
6,884.325 km
Eccentricity
0.00013
Inclination
97.4507°
RAAN
129.7799°
Arg. of periapsis
94.8372°
True anomaly
265.28622°
Mean anomaly
265.3009°
Eccentric anomaly
265.29356°
Mean motion
3.79972 °/min
Orbital period
94.74 mins
BSTAR
0.00019
Loading maneuver chart data...
Computing Atmospheric mass density...
Loading historical data...
Loading historical data...
Loading historical data...
Loading historical data...
Loading historical data...
Loading historical data...
Loading historical data...

Documentation

Showing up to 5 results
|